Lid_Strength_Index
2 2 2 2 2 2 2 1 1 1 1 1 1 1 1 1 1 2 1 1 2 2 1 2 2 1 2 3 3 4 4 4 6 4 3 2 2 2 2 1 1 2 2
2 2 2 2 1 2 2 2 1 1 1 1 1 1 1 1 1 2 2 1 2 2 2 2 2 1 3 3 4 4 4 4 4 5 4 3 3 3 2 2 1 -0 1
2 2 2 2 2 2 2 2 2 1 1 1 1 1 1 1 1 1 1 1 2 2 2 2 2 2 3 4 4 4 4 3 3 4 4 4 3 2 3 3 2 3 2
3 3 3 3 2 2 2 1 1 1 2 1 1 1 1 1 1 1 1 2 2 1 1 2 2 2 2 4 3 3 4 3 3 4 4 4 4 3 3 4 4 3 3
3 3 3 2 2 2 2 2 2 2 1 1 1 1 1 1 1 1 1 2 2 2 1 1 2 2 4 4 3 3 3 4 4 4 4 4 4 4 4 4 3 2 2
3 3 3 3 3 2 3 2 2 2 2 2 2 1 1 1 4 6 4 3 2 2 2 2 1 5 5 7 6 5 3 4 4 4 4 5 4 4 3 3 4 3 4
3 3 2 3 2 3 2 2 2 3 3 3 3 2 2 1 5 6 5 3 3 2 2 2 3 2 5 5 8 7 5 5 4 3 4 4 4 3 3 4 4 3 4
3 2 2 2 2 2 2 2 3 3 3 2 2 2 2 1 6 7 7 2 4 2 2 2 2 5 5 5 4 4 4 4 3 2 2 2 2 2 2 2 3 2 3
3 3 2 2 2 3 3 3 3 3 3 3 2 2 2 2 5 6 6 2 3 2 2 2 3 3 10 9 4 4 3 5 8 8 7 7 8 8 4 2 3 3 4
3 3 2 3 3 3 3 3 3 3 3 3 3 2 3 3 5 7 6 3 2 2 2 2 7 4 10 9 4 3 3 5 4 4 4 6 5 6 7 2 3 4 5
2 2 3 3 3 3 3 3 3 3 3 4 3 3 2 3 2 6 6 4 2 3 3 3 3 10 11 10 6 3 3 4 6 3 3 3 2 3 3 2 2 3 4
3 3 4 4 3 4 4 4 4 4 4 5 5 4 3 2 4 4 7 10 5 2 3 2 4 11 11 11 6 9 9 6 3 3 3 3 3 3 2 2 2 2 2
5 5 4 5 5 5 5 5 5 4 4 4 4 4 3 2 2 6 10 12 10 2 2 6 12 12 13 11 11 11 9 2 3 3 4 3 3 2 1 1 2 2 2
7 7 7 7 6 5 4 4 5 4 4 4 4 4 3 3 3 4 5 6 9 8 10 9 9 9 8 8 8 8 3 3 3 3 3 4 2 2 2 1 2 3 4
7 8 7 6 7 7 5 5 4 3 3 3 3 3 3 4 3 6 5 3 4 7 7 5 5 5 5 5 4 4 4 3 3 2 3 4 3 2 2 2 2 2 3
9 8 6 6 6 5 6 5 9 7 7 7 6 4 2 7 10 10 9 10 10 10 5 4 5 4 4 3 4 4 4 4 3 2 3 3 3 3 3 2 2 3 3
8 7 6 6 4 5 5 4 5 8 10 9 11 10 9 10 12 12 11 10 11 8 4 4 4 3 3 4 4 4 4 3 3 3 3 3 3 4 3 3 3 3 3
8 9 7 4 3 4 5 5 5 6 5 7 10 9 12 12 12 11 12 9 4 4 3 3 3 3 3 3 4 3 3 3 3 3 3 3 2 3 3 3 3 3 3
8 7 6 3 4 4 3 4 4 4 5 6 7 10 12 12 12 11 9 3 3 3 3 3 3 2 2 2 2 2 2 3 2 2 2 2 2 2 3 2 3 8 7
8 10 9 3 3 3 3 4 4 4 4 5 5 7 6 5 3 3 3 3 3 3 3 3 2 3 3 2 2 2 3 3 2 2 2 2 2 3 4 2 3 3 3
10 8 10 3 3 3 3 4 4 4 4 4 3 6 12 4 5 5 5 4 4 3 3 3 3 3 3 2 2 2 2 2 2 3 3 3 3 3 2 2 2 3 4
10 7 4 3 3 3 3 4 4 3 3 5 6 9 12 7 7 8 9 9 8 7 7 6 6 6 5 5 2 2 2 3 3 2 4 4 3 3 3 3 3 3 3
10 7 4 3 3 6 3 3 4 4 6 6 8 9 9 9 10 10 11 11 10 10 10 9 8 8 8 8 7 5 3 2 3 3 4 3 3 2 2 3 3 4 3
10 5 3 3 3 3 4 5 6 9 8 9 10 10 11 11 12 12 12 12 12 12 12 11 11 10 10 10 9 9 9 7 4 3 3 2 3 4 2 4 4 5 5
8 3 3 4 4 5 5 6 8 9 10 10 11 11 12 12 13 13 13 13 13 14 14 13 13 13 13 13 12 11 15 15 8 10 4 5 6 6 7 7 7 7 7
3 3 4 4 6 6 8 9 10 10 11 11 12 12 13 13 13 14 14 14 15 15 15 15 15 14 14 14 15 15 15 14 12 13 7 7 8 8 8 8 9 9 9